To NAV CANADA Home Page Login to a new session Search on AWWS site Feedback and Comments Disclaimer Vers la page française équivalente Tips FAQ What's new on the site To the Forecasts and Observations / NOTAM section To "File a Flight Plan" website Publications and other links Update of the User's profile FIC Telephone Numbers My Weather Data Folder Route Weather Data Regional Weather Data Local Weather Data To the Forecasts and Observations / NOTAM section
Request Generated 04/24/2014 at 05:49:17 UTC . Weather information available at that time is displayed.

METAR/TAF

FARO/YT    

CZFA - METAR not available

*** REMARK        : Forecast period has ended; this was the last TAF issued
*** REMARQUE : La période de prévision est échue; ceci était le dernier TAF qui a été émis
TAF CZFA 231738Z 2318/2322 12012KT P6SM SCT030 BKN060 TEMPO 2318/2322
BKN030
RMK NXT FCST WILL BE ISSUED AT 241545Z=
Your time UTC time
Weather data provided by Environment Canada and NAV CANADA